Location: Little Arabia
(41.4620°N, 81.7687°W)
Time: 20:14:19
(UTC+00:00)

ATLAS 2AS CENTAUR R/B - Pass Details

Date: 29 October 2020
Orbit: 939 x 1273 km, 63.7° (Epoch: 23 November)

Event Time Altitude Azimuth Distance (km) Brightness Sun altitude
Rises 23:36:18 0° 326° (NW) 4,167 6.2 -13.9°
Reaches altitude 10° 23:39:45 10° 339° (NNW) 3,155 5.3 -14.5°
Maximum altitude 23:45:53 26° 33° (NNE) 2,098 3.9 -15.6°
Enters shadow 23:48:38 21° 66° (ENE) 2,302 3.9 -16.2°
